Wind_Speed
19 23 28 31 30 23 22 25 30 33 35 37 37 41 40 41 42 42 37 40 41 34 31 28 27 30 32 32 33 34 34 32 31 30 31 30 29 27 27 29 29 30 28
23 25 21 18 16 19 21 28 33 35 36 39 41 43 46 46 47 45 39 35 39 41 36 32 31 31 32 33 34 35 36 36 36 35 34 34 33 31 30 29 30 30 31
21 26 15 11 19 26 26 31 36 39 42 45 47 49 48 44 41 40 40 35 29 33 36 44 40 36 35 35 36 37 39 39 39 39 39 38 37 36 33 32 31 31 30
18 21 22 23 25 29 33 37 41 44 45 45 48 49 46 41 38 37 31 25 29 33 37 42 45 43 39 42 41 41 41 43 43 42 42 42 41 40 40 36 35 33 31
17 21 25 27 29 34 39 42 42 42 46 47 46 46 41 42 37 38 40 34 28 34 35 42 46 45 43 47 46 44 46 48 48 48 46 45 45 46 43 41 39 37 34
20 24 30 30 33 37 41 43 44 44 45 46 46 48 45 40 41 35 29 26 30 34 39 43 48 46 45 54 53 44 47 47 48 53 52 49 46 48 49 46 43 41 38
24 26 31 35 38 40 42 44 46 47 43 43 47 49 49 45 31 28 24 26 32 38 41 50 54 54 58 59 54 50 44 44 47 48 50 53 52 48 51 51 48 46 43
30 33 36 37 39 40 41 43 44 45 43 43 44 49 50 48 40 31 37 40 42 37 33 41 53 55 56 58 51 50 49 49 47 47 46 50 51 50 49 53 53 50 47
34 36 37 38 39 40 41 42 43 45 43 44 42 45 45 42 47 44 44 44 41 38 36 42 46 49 51 51 50 51 52 50 47 47 48 47 48 49 47 49 53 53 50
37 36 37 38 39 39 40 40 40 45 44 45 46 43 44 45 44 50 35 28 25 30 31 36 33 39 41 39 39 40 42 45 45 44 45 47 49 49 50 49 50 53 52
37 37 38 38 39 39 39 41 43 40 43 44 45 44 44 42 38 31 34 28 26 25 26 25 26 33 30 33 35 36 37 39 41 41 41 42 45 45 44 43 47 51 53
37 38 38 38 38 38 37 37 39 40 42 38 38 39 35 26 26 28 28 28 26 25 24 26 26 27 30 32 38 41 43 40 39 39 40 41 40 41 44 43 45 49 53
38 38 38 38 37 36 37 37 37 36 34 35 36 42 23 24 26 25 25 27 28 25 26 24 26 29 32 36 39 42 45 44 40 41 40 40 42 43 44 44 43 50 55
38 40 40 39 38 36 37 36 26 25 30 27 37 27 25 22 22 23 26 26 31 29 28 30 30 32 32 32 37 41 41 39 37 40 39 38 42 42 42 40 39 42 55
39 40 40 40 39 37 30 24 33 29 28 31 27 23 24 26 27 24 25 23 28 36 36 34 37 31 31 36 36 41 39 34 33 32 31 30 34 36 36 34 34 39 39
41 41 39 37 39 37 31 28 24 28 23 25 29 23 27 29 29 28 24 25 29 33 42 35 35 33 38 37 36 37 36 32 30 28 30 29 30 32 31 30 31 39 40
41 40 38 37 36 34 25 25 25 22 21 27 25 22 26 31 30 29 27 29 30 31 38 43 39 40 44 40 39 36 35 32 29 26 29 29 28 30 31 26 26 30 34
41 40 40 40 37 30 26 25 19 19 22 23 26 31 33 30 31 29 28 29 31 32 37 45 45 44 40 39 37 33 30 27 27 22 25 23 31 30 28 30 26 26 32
40 41 41 39 33 31 25 19 19 21 22 26 30 34 36 34 33 33 34 35 36 39 43 44 43 39 38 35 32 29 27 26 23 17 26 26 27 32 32 28 24 25 27
41 42 42 37 35 25 21 18 20 23 27 29 31 38 37 36 36 35 34 35 38 40 41 39 37 36 34 30 27 26 25 17 18 19 21 29 28 27 28 27 24 23 25
41 41 39 32 26 25 28 25 24 26 28 31 32 34 35 37 35 32 33 33 36 37 35 34 33 32 30 27 26 22 20 19 17 21 29 22 15 20 23 20 23 23 20
41 38 30 27 22 22 28 26 25 24 26 29 33 33 33 33 33 34 34 32 32 31 29 30 30 29 27 25 21 17 20 19 18 16 19 13 17 17 19 16 22 24 20
39 32 25 24 23 23 22 26 26 26 27 30 32 31 29 30 31 30 32 32 30 28 28 28 28 26 27 25 20 20 20 20 20 18 19 13 16 12 13 14 31 25 26
30 27 24 24 24 27 25 27 26 27 29 31 30 28 28 28 30 28 29 29 26 25 26 26 27 28 28 25 24 25 25 25 24 25 20 24 16 19 16 22 30 25 28
28 25 23 24 25 28 26 26 26 27 30 29 28 26 27 26 27 27 28 27 25 24 24 27 28 28 23 20 19 19 20 23 22 18 23 23 25 26 25 22 27 24 25
30 26 26 28 26 26 27 26 26 27 28 27 25 27 28 24 24 24 26 26 25 24 24 25 27 20 16 15 13 13 13 14 16 14 11 18 19 20 24 27 22 23 26
Wind_Direction
293 289 303 301 269 276 293 302 306 307 308 308 311 310 311 311 311 309 307 305 304 301 298 294 289 286 285 285 283 281 281 278 275 273 273 274 275 274 272 273 272 272 271
290 286 291 284 259 279 294 302 302 304 305 305 305 304 306 308 307 306 305 301 301 303 299 296 292 285 281 279 277 277 276 276 276 273 269 268 270 271 270 267 269 268 268
299 288 266 261 302 308 307 307 304 303 304 305 304 304 305 302 302 303 304 306 296 294 296 296 291 287 283 277 272 269 271 271 270 270 268 266 265 267 265 266 263 263 262
310 307 312 322 321 314 306 301 298 298 296 296 297 299 300 304 304 301 305 299 290 293 290 287 287 290 285 278 272 269 266 265 265 265 264 262 261 261 263 261 262 262 260
308 315 315 312 308 303 299 299 297 296 296 298 298 298 301 306 303 302 301 299 282 286 285 286 288 291 285 281 277 272 268 265 263 261 259 260 257 257 256 258 257 258 260
312 312 307 304 298 295 295 296 298 300 302 305 305 301 305 305 306 312 301 296 289 281 287 289 292 293 292 290 288 284 272 268 262 260 258 255 254 253 253 252 252 254 256
306 302 298 300 300 301 301 302 304 304 304 303 302 303 303 305 302 296 290 272 271 280 283 287 288 287 290 289 290 284 280 272 264 259 257 257 253 249 250 251 249 250 251
309 306 305 304 302 303 303 303 303 303 304 303 302 300 301 298 296 269 272 277 284 290 285 281 284 287 288 286 286 287 280 273 271 268 258 255 255 251 247 247 249 247 246
308 307 306 305 305 306 305 304 303 302 304 301 300 298 300 296 296 296 290 287 282 274 275 284 284 281 281 284 285 285 285 282 277 272 267 260 256 254 250 244 245 246 244
310 307 306 307 308 307 305 304 303 302 301 300 298 294 290 291 295 295 296 297 286 281 282 288 285 287 283 286 286 286 285 284 280 275 271 267 264 260 255 248 243 243 244
307 309 310 312 311 310 309 306 304 302 298 295 292 292 294 289 290 297 296 295 290 291 287 285 284 292 302 299 294 289 287 285 283 282 278 274 268 262 260 258 250 242 242
311 314 315 315 314 312 309 306 304 302 300 298 285 286 298 295 298 291 292 293 291 293 287 279 290 295 295 293 297 294 291 287 284 280 277 276 273 270 267 263 260 249 240
314 315 317 319 318 315 311 309 305 302 298 287 286 299 296 290 292 295 296 295 293 290 291 293 292 293 293 292 294 290 290 290 286 279 276 275 274 272 267 263 259 248 242
317 320 321 321 319 319 317 316 310 299 287 293 294 302 297 297 299 293 294 292 290 291 291 295 296 298 298 297 291 293 290 285 282 278 274 269 266 264 264 261 258 249 240
320 322 324 323 320 322 323 304 296 302 289 290 298 297 298 299 299 290 288 290 290 295 294 301 303 304 297 290 294 290 291 287 281 276 276 270 264 263 256 252 245 238 234
322 322 322 322 323 323 317 304 298 288 280 284 290 293 301 303 301 298 292 283 285 289 295 299 299 297 290 293 292 292 293 287 283 275 270 267 260 264 254 250 243 235 228
320 322 322 324 323 319 313 300 296 295 278 281 296 294 296 293 295 297 290 288 290 290 289 299 299 297 298 297 298 296 291 286 281 272 270 267 261 263 253 253 252 244 239
322 323 325 324 324 321 312 310 299 277 285 283 282 287 294 297 298 294 294 290 286 287 288 299 303 302 300 301 302 298 294 288 279 251 260 262 267 267 250 254 255 245 241
323 326 324 325 322 319 312 303 293 291 275 280 284 295 302 304 301 304 303 304 302 300 299 302 303 301 302 303 300 299 297 290 289 264 258 255 267 261 260 254 252 249 239
325 324 322 324 322 309 310 297 287 287 293 299 292 293 300 303 305 304 304 303 303 300 300 301 301 302 303 304 301 302 296 277 272 246 239 259 263 262 262 258 252 247 239
323 321 321 324 319 306 306 307 302 296 295 294 298 301 305 304 305 307 304 306 303 303 303 302 303 303 305 304 296 294 298 297 271 250 233 254 262 273 252 257 251 236 236
321 320 318 316 306 302 305 300 305 301 300 303 304 306 308 309 313 314 311 310 308 306 305 305 307 307 307 307 306 294 279 278 263 262 248 244 229 251 248 237 248 236 236
317 319 312 312 310 304 304 301 305 305 307 309 309 310 311 312 312 316 313 314 313 312 312 314 316 312 307 299 286 279 280 270 256 253 273 251 235 236 229 244 246 238 227
312 309 309 310 312 306 313 307 308 308 311 313 311 312 312 313 311 314 316 317 315 314 315 317 311 308 303 297 290 271 259 260 256 242 251 257 221 232 236 234 247 236 230
307 303 301 302 305 302 312 308 308 309 313 313 312 313 314 314 315 319 321 323 318 318 318 318 317 312 305 302 299 286 277 275 272 263 250 256 254 260 261 249 246 242 232
306 302 301 309 303 299 308 309 307 309 311 312 313 314 315 315 315 320 325 326 324 320 321 323 322 316 313 313 312 304 303 294 280 257 230 244 248 256 263 254 256 234 232
Height
3171 3169 3167 3164 3162 3162 3160 3159 3157 3154 3150 3147 3143 3140 3138 3136 3132 3130 3129 3125 3121 3122 3120 3119 3117 3115 3113 3113 3112 3111 3110 3111 3112 3112 3112 3112 3111 3112 3112 3113 3115 3115 3117
3165 3163 3161 3159 3158 3157 3156 3154 3151 3148 3146 3142 3138 3134 3131 3127 3124 3121 3120 3117 3113 3109 3109 3109 3109 3108 3106 3104 3104 3103 3103 3103 3103 3104 3104 3104 3105 3105 3107 3107 3107 3109 3111
3159 3159 3156 3153 3153 3152 3150 3147 3145 3142 3138 3133 3130 3126 3124 3121 3117 3113 3110 3107 3105 3100 3096 3093 3095 3098 3097 3096 3095 3094 3093 3093 3095 3095 3096 3097 3097 3097 3099 3100 3102 3103 3106
3156 3155 3152 3148 3147 3146 3144 3142 3139 3134 3132 3129 3123 3118 3116 3112 3109 3105 3103 3102 3099 3096 3091 3085 3081 3084 3085 3084 3084 3084 3083 3082 3083 3085 3086 3088 3089 3090 3090 3093 3095 3095 3096
3154 3151 3148 3146 3145 3142 3137 3134 3131 3128 3122 3118 3114 3109 3108 3105 3101 3098 3094 3093 3091 3086 3080 3077 3071 3071 3071 3068 3071 3074 3073 3071 3071 3072 3074 3076 3079 3080 3082 3083 3087 3090 3089
3150 3148 3144 3142 3140 3136 3131 3127 3122 3119 3114 3108 3103 3099 3098 3095 3092 3088 3085 3084 3081 3076 3072 3065 3062 3059 3054 3053 3054 3059 3055 3058 3061 3057 3060 3064 3066 3069 3071 3074 3077 3079 3082
3146 3144 3140 3136 3132 3129 3123 3118 3113 3109 3106 3102 3095 3090 3087 3087 3085 3084 3079 3074 3070 3067 3062 3057 3051 3047 3045 3042 3040 3040 3045 3042 3041 3046 3047 3047 3052 3056 3059 3062 3064 3067 3070
3140 3137 3133 3129 3124 3120 3116 3110 3105 3100 3097 3093 3088 3080 3076 3076 3076 3072 3068 3064 3063 3056 3052 3046 3041 3037 3034 3030 3031 3030 3027 3029 3030 3031 3033 3034 3036 3041 3046 3049 3052 3055 3061
3134 3130 3125 3120 3117 3112 3107 3102 3097 3091 3088 3084 3081 3075 3067 3063 3058 3058 3055 3052 3050 3047 3040 3036 3032 3028 3024 3023 3020 3018 3014 3016 3018 3018 3018 3020 3023 3026 3031 3037 3040 3044 3049
3126 3123 3118 3113 3109 3104 3099 3094 3090 3083 3079 3075 3070 3067 3062 3056 3049 3042 3044 3041 3038 3036 3033 3029 3024 3019 3017 3014 3012 3009 3004 3003 3005 3006 3006 3007 3010 3013 3016 3021 3027 3031 3034
3119 3114 3110 3105 3100 3095 3090 3085 3079 3076 3070 3065 3060 3055 3052 3048 3043 3039 3031 3032 3030 3028 3025 3021 3016 3012 3009 3005 3002 3000 2996 2994 2993 2993 2994 2994 2996 2998 3003 3006 3010 3015 3019
3111 3106 3102 3096 3091 3085 3081 3076 3070 3064 3058 3053 3050 3045 3041 3038 3035 3031 3027 3023 3020 3020 3017 3012 3010 3006 3003 2998 2993 2988 2985 2984 2984 2982 2983 2983 2984 2986 2989 2993 2997 3001 3006
3103 3098 3092 3087 3082 3077 3071 3066 3060 3054 3050 3044 3040 3037 3034 3031 3028 3025 3021 3017 3013 3011 3008 3005 3003 2998 2993 2988 2983 2978 2974 2972 2971 2970 2972 2972 2972 2974 2975 2979 2983 2988 2991
3094 3088 3083 3077 3072 3067 3061 3055 3049 3045 3042 3038 3032 3029 3027 3024 3022 3019 3015 3011 3004 3001 3000 2996 2993 2988 2984 2979 2973 2968 2964 2962 2961 2959 2961 2962 2962 2964 2964 2967 2970 2974 2978
3085 3079 3073 3067 3063 3058 3051 3048 3043 3038 3036 3030 3027 3025 3021 3019 3015 3012 3009 3005 3001 2992 2988 2987 2983 2981 2976 2970 2965 2958 2954 2952 2950 2950 2951 2953 2953 2954 2955 2957 2960 2963 2967
3076 3071 3066 3061 3053 3047 3044 3039 3036 3032 3029 3026 3023 3019 3016 3012 3008 3005 3002 2998 2994 2988 2977 2979 2975 2971 2965 2959 2954 2949 2945 2943 2942 2942 2942 2944 2945 2945 2947 2949 2951 2954 2957
3069 3064 3058 3052 3047 3040 3036 3032 3027 3025 3023 3020 3016 3013 3009 3006 3001 2997 2993 2990 2986 2982 2973 2966 2965 2959 2952 2947 2943 2939 2936 2935 2934 2934 2933 2934 2936 2937 2938 2941 2943 2945 2949
3061 3055 3049 3043 3037 3032 3028 3023 3020 3019 3017 3014 3011 3006 3002 2998 2994 2989 2985 2981 2976 2972 2965 2956 2953 2947 2942 2937 2933 2929 2927 2926 2925 2927 2926 2927 2927 2930 2931 2933 2935 2937 2940
3052 3045 3040 3034 3029 3024 3020 3018 3016 3013 3010 3006 3003 2998 2993 2989 2984 2980 2975 2970 2965 2960 2954 2947 2942 2938 2933 2929 2925 2922 2920 2919 2918 2919 2919 2920 2920 2922 2924 2926 2928 2930 2933
3042 3037 3031 3026 3022 3017 3014 3012 3010 3007 3002 2999 2995 2991 2986 2980 2976 2971 2967 2962 2956 2950 2944 2939 2934 2929 2925 2922 2918 2915 2913 2913 2912 2912 2913 2914 2913 2916 2918 2920 2922 2924 2926
3035 3029 3023 3018 3014 3010 3008 3005 3002 2999 2995 2991 2987 2982 2978 2972 2968 2964 2959 2954 2947 2941 2936 2931 2926 2922 2918 2915 2912 2910 2908 2906 2907 2906 2907 2907 2908 2910 2913 2915 2915 2918 2920
3027 3022 3017 3012 3009 3004 3002 2999 2995 2993 2989 2984 2979 2975 2970 2963 2959 2954 2949 2945 2940 2933 2929 2923 2919 2914 2911 2908 2905 2905 2903 2902 2901 2901 2900 2902 2903 2905 2907 2910 2909 2913 2915
3019 3014 3010 3006 3002 2998 2996 2992 2989 2986 2982 2977 2972 2967 2963 2958 2953 2949 2943 2938 2932 2927 2922 2917 2913 2909 2905 2902 2900 2898 2898 2896 2896 2896 2895 2896 2898 2900 2903 2904 2903 2907 2910
3014 3009 3004 3000 2996 2990 2990 2986 2983 2979 2975 2970 2966 2961 2957 2953 2947 2943 2938 2932 2927 2922 2917 2913 2908 2903 2899 2895 2892 2890 2889 2888 2888 2890 2892 2891 2893 2894 2897 2898 2898 2902 2905
3009 3004 3000 2994 2990 2985 2984 2980 2977 2973 2969 2964 2959 2956 2952 2947 2941 2937 2932 2926 2922 2917 2913 2907 2902 2897 2892 2889 2886 2884 2883 2882 2882 2884 2887 2887 2889 2890 2891 2892 2894 2897 2900
3000 2996 2993 2987 2984 2980 2977 2974 2971 2966 2963 2958 2955 2950 2945 2943 2937 2933 2927 2922 2917 2912 2907 2903 2897 2891 2888 2885 2883 2881 2880 2878 2878 2878 2882 2883 2884 2886 2886 2888 2889 2893 2896